[[{"header":{"parameterUnit":"m.s-1","parameterCategory":1,"la1":30.2991,"la2":30.254,"lo1":-89.0895,"lo2":-89.0444,"dx":0.0017,"dy":0.0017,"nx":28,"ny":28,"refTime":"2022-11-12T09:00:00:Z","depth":0,"parameterNumber":2,"parameterNumberName":"U-component_of_WINDS"},"data":[0,0,0,0,0,0,0,0,0,0,0,0,0,0,0,0,0,0,0,0,0,0,0,0,0,0,0,0,0,0,0,0,0,0,0,0,0,0,0,0,0,0,0,0,0,0,0,0,0,0,0,0,0,0,0,0,0,0,-1.7345,-1.7345,0,-1.739,-1.7391,-1.7391,-1.7354,-1.7353,-1.7351,-1.735,-1.7397,-1.7399,-1.7402,0,0,0,0,0,0,0,0,0,0,0,0,0,-1.7226,-1.7228,-1.7345,-1.7345,-1.7346,-1.739,-1.7391,-1.7391,-1.7355,-1.7353,-1.7351,-1.7349,-1.7396,-1.7399,-1.7402,0,0,0,0,0,0,0,0,0,0,0,0,0,-1.7275,-1.7229,-1.7345,-1.7333,-1.7332,-1.739,-1.7391,-1.7391,-1.7355,-1.7353,-1.735,-1.7348,-1.7395,-1.7399,-1.7403,-1.7474,0,0,-1.7415,-1.7417,0,0,0,0,0,0,0,0,-1.7272,-1.728,-1.7334,-1.7334,-1.7333,-1.7364,-1.7366,-1.7419,-1.7356,-1.7346,-1.735,-1.7347,-1.7388,-1.7392,-1.7406,-1.7476,-1.7478,-1.7415,-1.7418,-1.7419,-1.7421,0,0,0,0,0,0,0,-1.7269,-1.7277,-1.7363,-1.7335,-1.7334,-1.7325,-1.733,-1.7376,-1.738,-1.7347,-1.7345,-1.735,-1.7387,-1.7402,-1.7407,-1.7479,-1.7415,-1.7419,-1.7421,-1.7423,-1.761,-1.7613,0,0,0,0,0,0,-1.7267,-1.7275,-1.7361,-1.7364,-1.7296,-1.7329,-1.7334,-1.7357,-1.7379,-1.738,-1.7352,-1.7348,-1.7396,-1.7402,-1.7408,-1.7494,-1.7419,-1.7423,-1.7426,-1.7608,-1.7611,-1.7613,0,0,0,0,0,0,-1.7264,-1.7275,-1.7359,-1.7319,-1.7329,-1.7334,-1.7359,-1.7359,-1.7374,-1.7383,-1.7383,-1.7367,-1.7395,-1.7402,-1.7458,-1.7495,-1.7425,-1.7429,-1.7605,-1.7608,-1.7612,-1.7666,0,0,0,0,0,0,-1.7261,-1.7274,-1.7302,-1.732,-1.7331,-1.7409,-1.7361,-1.7361,-1.7381,-1.7376,-1.7397,-1.7398,-1.7393,-1.7452,-1.7462,-1.7499,-1.7432,-1.7601,-1.7606,-1.7611,-1.7661,-1.7671,-1.7679,0,0,0,0,0,-1.7257,-1.7315,-1.7303,-1.7314,-1.7366,-1.7411,-1.7418,-1.7411,-1.7384,-1.7411,-1.7417,-1.7397,-1.7489,-1.7458,-1.7469,-1.7508,-1.7599,-1.7605,-1.761,-1.7656,-1.7669,-1.7679,0,0,0,0,0,0,-1.7302,-1.7317,-1.7304,-1.737,-1.7389,-1.7405,-1.744,-1.7424,-1.7452,-1.7447,-1.7437,-1.7442,-1.7501,-1.7509,-1.7475,-1.7578,-1.7539,-1.7548,-1.7571,-1.7583,-1.7592,-1.7589,-1.7435,0,0,0,0,0,-1.7319,-1.7355,-1.7366,-1.7423,-1.7433,-1.7435,-1.7454,-1.7447,-1.7467,-1.7475,-1.7485,-1.7505,-1.7538,-1.7561,-1.7592,-1.7661,-1.7665,-1.7693,-1.7702,-1.771,-1.7718,-1.7755,-1.7768,-1.7632,-1.7632,-1.7632,0,0,-1.7356,-1.7369,-1.7392,-1.7432,-1.7447,-1.7484,-1.7442,-1.7483,-1.7511,-1.7482,-1.7535,-1.7543,-1.7564,-1.7627,-1.7655,-1.7636,-1.7756,-1.7717,-1.7723,-1.7727,-1.7762,-1.7775,-1.7787,-1.7636,-1.7635,-1.7635,0,0,-1.7442,-1.7455,-1.7504,-1.7519,-1.7541,-1.7541,-1.7552,-1.757,-1.7574,-1.7627,-1.7606,-1.7638,-1.7695,-1.7712,-1.7728,-1.7818,-1.7801,-1.7828,-1.7879,-1.7915,-1.7926,-1.7935,-1.7969,-1.798,-1.7836,-1.7836,-1.7836,0,-1.7485,-1.754,-1.7531,-1.7574,-1.7592,-1.7566,-1.7616,-1.7631,-1.7662,-1.7675,-1.7653,-1.7724,-1.7737,-1.7803,-1.7825,-1.7838,-1.7852,-1.7827,-1.7925,-1.7934,-1.7943,-1.7975,-1.7987,-1.7839,-1.7839,-1.7838,-1.7838,0,-1.7592,-1.7631,-1.7668,-1.7698,-1.772,-1.7766,-1.7764,-1.7787,-1.7778,-1.778,-1.7834,-1.7848,-1.7882,-1.7897,-1.7888,-1.7962,-1.7949,-1.7926,-1.7888,-1.796,-1.7989,-1.8001,-1.7844,-1.7843,-1.7842,-1.7841,0,0,-1.771,-1.7734,-1.7748,-1.7761,-1.7783,-1.7812,-1.7856,-1.7889,-1.791,-1.7931,-1.7968,-1.8017,-1.7995,-1.8013,-1.8006,-1.8038,-1.811,-1.8011,-1.8011,-1.803,-1.8192,-1.8211,-1.8225,-1.8097,-1.81,-1.8101,-1.8191,0,-1.7798,-1.7876,-1.7868,-1.7942,-1.7977,-1.7953,-1.7991,-1.8008,-1.8011,-1.8042,-1.8045,-1.808,-1.8048,-1.8059,-1.8089,-1.8095,-1.8142,-1.8088,-1.8133,-1.8134,-1.813,-1.824,-1.826,-1.8344,-1.8202,-1.8204,-1.8206,0,-1.7912,-1.7937,-1.8015,-1.8031,-1.8045,-1.808,-1.8109,-1.8138,-1.8157,-1.8157,-1.8176,-1.8163,-1.8207,-1.8166,-1.8227,-1.819,-1.8207,-1.8213,-1.8216,-1.8221,-1.8176,-1.825,-1.837,-1.8384,-1.8223,-1.8222,-1.8221,0,-1.7991,-1.8045,-1.8098,-1.811,-1.813,-1.8155,-1.8164,-1.818,-1.82,-1.8225,-1.8238,-1.8267,-1.8284,-1.8307,-1.8302,-1.8272,-1.8365,-1.8323,-1.8366,-1.8367,-1.8389,-1.8388,-1.8515,-1.8397,-1.8397,-1.8397,-1.8396,0,-1.8092,-1.814,-1.8134,-1.8167,-1.8221,-1.8211,-1.8264,-1.827,-1.8284,-1.8318,-1.8297,-1.8329,-1.832,-1.8351,-1.8347,-1.8399,-1.8406,-1.8407,-1.8406,-1.841,-1.841,-1.8423,-1.8418,-1.84,-1.8399,-1.8399,-1.8398,0,-1.8191,-1.8189,-1.8245,-1.8258,-1.8263,-1.8302,-1.8313,-1.8344,-1.8345,-1.8387,-1.8397,-1.8398,-1.8434,-1.843,-1.847,-1.8467,-1.8532,-1.8522,-1.8526,-1.8524,-1.8568,-1.8565,-1.871,-1.8728,-1.8597,-1.8598,-1.8599,0,-1.8256,-1.8293,-1.831,-1.8331,-1.8342,-1.8376,-1.8396,-1.8386,-1.8408,-1.8431,-1.846,-1.8493,-1.852,-1.8578,-1.8582,-1.8613,-1.8605,-1.8654,-1.861,-1.8613,-1.8607,-1.8606,-1.861,-1.8663,-1.8665,-1.8666,-1.8667,0,-1.8372,-1.8369,-1.8399,-1.8428,-1.8452,-1.8475,-1.8495,-1.8513,-1.8506,-1.8531,-1.8567,-1.8588,-1.8628,-1.8662,-1.8691,-1.8699,-1.8683,-1.868,-1.8692,-1.8698,-1.8699,-1.87,-1.8551,-1.8677,-1.8676,-1.8676,-1.8675,-1.8675,-1.8457,-1.8489,-1.8506,-1.8539,-1.8553,-1.8573,-1.8602,-1.8606,-1.8636,-1.8669,-1.8661,-1.8702,-1.8718,-1.8755,-1.8767,-1.8798,-1.8781,-1.8798,-1.8802,-1.8807,-1.8813,-1.8692,-1.8803,-1.8803,-1.8803,-1.8802,-1.8802,0,-1.8573,-1.8583,-1.8613,-1.8643,-1.8669,-1.8649,-1.867,-1.8694,-1.873,-1.8747,-1.8773,-1.8815,-1.8847,-1.8853,-1.8884,-1.8908,-1.8901,-1.8917,-1.8916,-1.8918,-1.8826,-1.8814,-1.8922,-1.8922,-1.8922,-1.8922,-1.8922,-1.8922,-1.8637,-1.869,-1.8688,-1.8747,-1.8756,-1.8796,-1.881,-1.8828,-1.8841,-1.8888,-1.8915,-1.8919,-1.8931,-1.8963,-1.8991,-1.8992,-1.9005,-1.9024,-1.9022,-1.8937,-1.8925,-1.8913,-1.8901,-1.9027,-1.9027,-1.9112,-1.9113,-1.9113]},{"header":{"parameterUnit":"m.s-1","parameterCategory":1,"la1":30.2991,"la2":30.254,"lo1":-89.0895,"lo2":-89.0444,"dx":0.0017,"dy":0.0017,"nx":28,"ny":28,"refTime":"2022-11-12T09:00:00:Z","depth":0,"parameterNumber":3,"parameterNumberName":"V-component_of_WINDS"},"data":[0,0,0,0,0,0,0,0,0,0,0,0,0,0,0,0,0,0,0,0,0,0,0,0,0,0,0,0,0,0,0,0,0,0,0,0,0,0,0,0,0,0,0,0,0,0,0,0,0,0,0,0,0,0,0,0,0,0,-7.1758,-7.1759,0,-7.1849,-7.185,-7.1851,-7.1788,-7.1785,-7.1782,-7.178,-7.1866,-7.1871,-7.1876,0,0,0,0,0,0,0,0,0,0,0,0,0,-7.1524,-7.1528,-7.1758,-7.1759,-7.176,-7.1849,-7.185,-7.1851,-7.1788,-7.1785,-7.1782,-7.1778,-7.1865,-7.1871,-7.1876,0,0,0,0,0,0,0,0,0,0,0,0,0,-7.1621,-7.153,-7.1758,-7.174,-7.1739,-7.1848,-7.185,-7.1851,-7.1789,-7.1785,-7.1781,-7.1777,-7.1863,-7.187,-7.1877,-7.2007,0,0,-7.19,-7.1903,0,0,0,0,0,0,0,0,-7.1616,-7.163,-7.1741,-7.1741,-7.1741,-7.1803,-7.1799,-7.1903,-7.179,-7.177,-7.178,-7.1775,-7.1848,-7.1856,-7.1883,-7.2011,-7.2015,-7.19,-7.1905,-7.1908,-7.191,0,0,0,0,0,0,0,-7.1609,-7.1625,-7.1794,-7.1743,-7.1743,-7.1725,-7.1734,-7.1819,-7.1831,-7.1771,-7.1767,-7.1779,-7.1847,-7.1876,-7.1884,-7.2016,-7.19,-7.1907,-7.1911,-7.1914,-7.2256,-7.2261,0,0,0,0,0,0,-7.1605,-7.162,-7.1791,-7.1796,-7.1667,-7.1733,-7.1743,-7.1787,-7.183,-7.1833,-7.1782,-7.1776,-7.1865,-7.1876,-7.1887,-7.2042,-7.1908,-7.1915,-7.1919,-7.2252,-7.2257,-7.2262,0,0,0,0,0,0,-7.16,-7.1621,-7.1787,-7.1707,-7.1727,-7.1741,-7.1791,-7.1791,-7.182,-7.1839,-7.184,-7.181,-7.1862,-7.1877,-7.1978,-7.2045,-7.1918,-7.1925,-7.2246,-7.2253,-7.226,-7.2354,0,0,0,0,0,0,-7.1593,-7.1619,-7.167,-7.1709,-7.1732,-7.1879,-7.1795,-7.1796,-7.1833,-7.1825,-7.1865,-7.1867,-7.186,-7.1968,-7.1986,-7.2052,-7.1931,-7.224,-7.2249,-7.2258,-7.2345,-7.2364,-7.2379,0,0,0,0,0,-7.1585,-7.1692,-7.1673,-7.1694,-7.1796,-7.1883,-7.1896,-7.1887,-7.1839,-7.1889,-7.1902,-7.1866,-7.2034,-7.1979,-7.1998,-7.2068,-7.2236,-7.2247,-7.2257,-7.2338,-7.236,-7.2379,0,0,0,0,0,0,-7.1658,-7.1696,-7.1676,-7.1799,-7.1839,-7.1872,-7.1936,-7.1911,-7.1963,-7.1954,-7.1938,-7.1948,-7.2055,-7.2071,-7.2009,-7.2196,-7.2127,-7.2142,-7.2182,-7.2203,-7.222,-7.2214,-7.1937,0,0,0,0,0,-7.1689,-7.1758,-7.1787,-7.1892,-7.1914,-7.1922,-7.1959,-7.1949,-7.1989,-7.2004,-7.2024,-7.2062,-7.2123,-7.2164,-7.2222,-7.2347,-7.2355,-7.2405,-7.2422,-7.2436,-7.2449,-7.2517,-7.2539,-7.2297,-7.2297,-7.2296,0,0,-7.1752,-7.1782,-7.1826,-7.1908,-7.1937,-7.2008,-7.1936,-7.2013,-7.2065,-7.2015,-7.2114,-7.2129,-7.217,-7.2285,-7.2336,-7.2302,-7.2518,-7.2449,-7.246,-7.2466,-7.253,-7.2553,-7.2573,-7.2304,-7.2302,-7.2301,0,0,-7.1904,-7.1933,-7.2025,-7.2056,-7.2103,-7.2108,-7.213,-7.2168,-7.2177,-7.2276,-7.224,-7.23,-7.2406,-7.2438,-7.2467,-7.2631,-7.26,-7.265,-7.2739,-7.2805,-7.2824,-7.2841,-7.29,-7.2921,-7.2663,-7.2663,-7.2664,0,-7.1976,-7.2083,-7.2074,-7.2155,-7.2192,-7.2152,-7.2244,-7.2274,-7.2336,-7.2361,-7.2323,-7.2456,-7.2481,-7.2602,-7.2642,-7.2668,-7.2691,-7.2646,-7.2823,-7.2839,-7.2855,-7.2911,-7.2933,-7.2669,-7.2669,-7.2668,-7.2667,0,-7.2169,-7.2244,-7.2312,-7.2376,-7.242,-7.2506,-7.2508,-7.2553,-7.254,-7.2548,-7.2648,-7.2677,-7.274,-7.2768,-7.2754,-7.2888,-7.2865,-7.2825,-7.2755,-7.2884,-7.2936,-7.2957,-7.2678,-7.2675,-7.2674,-7.2672,0,0,-7.2369,-7.2428,-7.2453,-7.2482,-7.2531,-7.2587,-7.267,-7.2734,-7.2773,-7.2817,-7.2886,-7.2977,-7.2941,-7.2975,-7.2964,-7.3022,-7.315,-7.2975,-7.2975,-7.3006,-7.3299,-7.3329,-7.3354,-7.313,-7.3134,-7.3137,-7.3295,0,-7.2523,-7.2672,-7.2667,-7.2804,-7.2872,-7.2836,-7.2908,-7.2945,-7.2955,-7.3013,-7.3023,-7.3088,-7.3035,-7.3055,-7.3111,-7.3123,-7.3209,-7.3111,-7.3193,-7.3196,-7.3184,-7.3381,-7.3413,-7.3561,-7.3316,-7.3319,-7.3321,0,-7.2724,-7.2778,-7.2923,-7.2962,-7.2991,-7.3056,-7.3114,-7.3171,-7.3211,-7.3214,-7.3253,-7.3233,-7.3315,-7.3244,-7.3357,-7.3291,-7.3323,-7.3334,-7.3339,-7.3347,-7.3267,-7.3394,-7.3608,-7.363,-7.3353,-7.3351,-7.3349,0,-7.2855,-7.2963,-7.3065,-7.309,-7.3138,-7.3185,-7.3207,-7.3244,-7.3283,-7.3332,-7.3357,-7.3415,-7.3447,-7.3492,-7.3488,-7.3436,-7.3602,-7.353,-7.3606,-7.3606,-7.3643,-7.3641,-7.3865,-7.3664,-7.3663,-7.3663,-7.3663,0,-7.3029,-7.3119,-7.3125,-7.3187,-7.3286,-7.3278,-7.3376,-7.3393,-7.3426,-7.3489,-7.346,-7.3519,-7.351,-7.3569,-7.3566,-7.366,-7.3674,-7.3678,-7.3676,-7.3681,-7.3681,-7.3702,-7.3692,-7.3669,-7.3668,-7.3666,-7.3665,0,-7.3192,-7.32,-7.3308,-7.3346,-7.3357,-7.3429,-7.346,-7.3518,-7.3526,-7.3606,-7.3624,-7.3636,-7.3704,-7.3704,-7.3781,-7.3779,-7.3894,-7.388,-7.3882,-7.3879,-7.3955,-7.3948,-7.4202,-7.4234,-7.4012,-7.4014,-7.4015,0,-7.3303,-7.3372,-7.3418,-7.346,-7.3485,-7.3552,-7.3592,-7.3586,-7.3629,-7.3681,-7.3732,-7.3798,-7.3851,-7.3961,-7.3975,-7.4034,-7.4021,-7.4106,-7.403,-7.4033,-7.4023,-7.4019,-7.4025,-7.4121,-7.4123,-7.4125,-7.4127,0,-7.3498,-7.3499,-7.3559,-7.3622,-7.3671,-7.3719,-7.3763,-7.3798,-7.3797,-7.3846,-7.3917,-7.3958,-7.4038,-7.4104,-7.4161,-7.418,-7.4154,-7.4151,-7.4172,-7.4178,-7.4176,-7.4178,-7.3923,-7.4145,-7.4143,-7.4142,-7.4141,-7.414,-7.3639,-7.3698,-7.3741,-7.3809,-7.3842,-7.3885,-7.3941,-7.3957,-7.4017,-7.4083,-7.4075,-7.4154,-7.4192,-7.4266,-7.4291,-7.4351,-7.4321,-7.4351,-7.4359,-7.4367,-7.4375,-7.4166,-7.4361,-7.4361,-7.436,-7.436,-7.436,0,-7.3832,-7.3858,-7.3921,-7.3986,-7.4039,-7.4012,-7.4059,-7.4105,-7.4176,-7.4214,-7.4267,-7.4349,-7.4412,-7.4432,-7.4493,-7.4537,-7.4526,-7.4553,-7.455,-7.4555,-7.4398,-7.4374,-7.4561,-7.4561,-7.4561,-7.4561,-7.4561,-7.4561,-7.394,-7.404,-7.4046,-7.4161,-7.4186,-7.4265,-7.4294,-7.4333,-7.4364,-7.4457,-7.451,-7.4523,-7.4554,-7.4617,-7.4674,-7.4677,-7.4701,-7.4734,-7.4732,-7.4586,-7.4566,-7.4546,-7.4524,-7.4739,-7.4739,-7.4884,-7.4885,-7.4886]}]]